AirNav  
 
 629 users online  

8OR1 Lebanon Hospital Heliport
Lebanon, Oregon, USA

GOING TO LEBANON?


FAA INFORMATION EFFECTIVE 25 FEBRUARY 2021

Location

FAA Identifier: 8OR1
Lat/Long: 44-33-05.3500N 122-54-27.7900W
44-33.089167N 122-54.463167W
44.5514861,-122.9077194
(estimated)
Elevation: 340 ft. / 104 m (estimated)
Variation: 19E (1985)
From city: 1 mile SW of LEBANON, OR
Time zone: UTC -8 (UTC -7 during Daylight Saving Time)
Zip code: 97355

Heliport Operations

Heliport use: Private use, MEDICAL USE.
Control tower: no
ARTCC: SEATTLE CENTER
FSS: MC MINNVILLE FLIGHT SERVICE STATION
Attendance: CONTINUOUS
Wind indicator: yes
Segmented circle: no

Heliport Communications

WX AWOS-3PT at CVO (17 nm W): 135.775 (541-754-0081)

Nearby radio navigation aids

VOR radial/distance  VOR name  Freq  Var
CVOr061/16.8CORVALLIS VOR/DME115.4018E
EUGr013/29.2EUGENE VORTAC112.9015E

 
NDB name  Hdg/Dist  Freq  Var  ID
LEWISBURG089/16.022515ELWG .-.. .-- --.

Heliport Services

Runway Information

Helipad H1

Dimensions: 60 x 60 ft. / 18 x 18 m
Surface: asphalt
Latitude: 44-33.089167N
Longitude: 122-54.463167W
Elevation: 340.0 ft.
Traffic pattern: leftleft

Heliport Ownership and Management from official FAA records

Ownership: Privately-owned
Owner: LEBANON COMMUNITY HOSPITAL
525 N SANTIAM HIGHWAY
LEBANON, OR 97355
Phone 503-258-2101
Manager: ARLEN EMMERT
PO BOX 739
LEBANON, OR 97355
Phone 503-258-2101

Additional Remarks

FOR CD CTC CASCADE APCH AT 541-607-4674/4675, WHEN APCH CLSD CTC SEATTLE ARTCC AT 253-351-3694.

Instrument Procedures

There are no published instrument procedures at 8OR1.

Some nearby airports with instrument procedures:

S12 - Albany Municipal Airport (8 nm NW)
KCVO - Corvallis Municipal Airport (17 nm W)
KSLE - McNary Field Airport (22 nm N)
KEUG - Mahlon Sweet Field Airport (29 nm SW)
77S - Hobby Field Airport (37 nm S)
 
Loc | Ops | Rwys | IFR | FBO | Links
Com | Nav | Svcs | Stats | Notes
Area around 8OR1 (Lebanon Hospital Heliport)
 
Road maps at: MapQuest Bing Google
 
Aerial photo
No photo
 
Sectional chart

 
Airport distance calculator
Flying to Lebanon Hospital Heliport? Find the distance to fly.

From to 8OR1

Sunrise and sunset
Times for 01-Mar-2021
 Local
(UTC-8)
 Zulu
(UTC)
Morning civil twilight06:2114:21
Sunrise06:5014:50
Sunset17:5801:58
Evening civil twilight18:2702:27

Current date and time
Zulu (UTC)  01-Mar-2021 12:49:02
Local (UTC-8)  01-Mar-2021 04:49:02
 
METAR
KCVO 
16nm W 
011156Z AUTO 00000KT 10SM CLR 03/03 A3006 RMK AO2 SLP182 T00280028 10056 20022 56020
KSLE 
21nm N 
011156Z AUTO 00000KT 10SM CLR 04/02 A3005 RMK AO2 SLP176 T00390022 10061 20039 58018
KEUG 
28nm SW 
011154Z AUTO 23003KT 10SM CLR 03/02 A3005 RMK AO2 SLP178 T00330022 10056 20028 56021
TAF
KSLE 
21nm N 
281735Z 2818/0118 19007KT P6SM SCT050 FM011100 VRB03KT P6SM VCFG SCT030 BKN100
NOTAMs
Click for the latest NOTAMs
NOTAMs are issued by the DoD/FAA and will open in a separate window not controlled by AirNav.

 

 
 

Would you like to see your business listed on this page?

 If your business provides an interesting product or service to pilots, flight crews, aircraft, or users of the Lebanon Hospital Heliport, you should consider listing it here.  To start the listing process, click on the button below
 
Add a business
 

Other Pages about Lebanon Hospital Heliport

Update a link
 
Copyright © AirNav, LLC. All rights reserved. Privacy Policy  Contact